Time,TemperatureF,DewpointF,PressureIn,WindDirection,WindDirectionDegrees,WindSpeedMPH,WindSpeedGustMPH,Humidity,HourlyPrecipIn,Conditions,Clouds,dailyrainin,SoftwareType,DateUTC
2013-01-17 00:00:00,61.9,60.2,30.06,SE,145,0.0,0.0,94,0.00,,,0.00,Wunderground v.1.15,2013-01-17 05:00:00,
2013-01-17 00:01:00,61.8,60.1,30.06,SE,145,0.0,0.0,94,0.00,,,0.00,Wunderground v.1.15,2013-01-17 05:01:00,
2013-01-17 00:04:00,61.8,60.1,30.06,SE,145,0.0,0.0,94,0.00,,,0.00,Wunderground v.1.15,2013-01-17 05:04:00,
2013-01-17 00:06:00,61.8,60.1,30.06,SE,145,0.0,0.0,94,0.00,,,0.00,Wunderground v.1.15,2013-01-17 05:06:00,
2013-01-17 00:11:00,61.8,60.1,30.06,SE,145,0.0,0.0,94,0.00,,,0.00,Wunderground v.1.15,2013-01-17 05:11:00,
2013-01-17 00:17:00,-999.9,-99.9,30.06,North,32767,-999.0,0.0,255,-99.99,,,0.00,Wunderground v.1.15,2013-01-17 05:17:00,
2013-01-17 00:23:00,-999.9,-99.9,30.06,North,32767,-999.0,0.0,255,-99.99,,,0.00,Wunderground v.1.15,2013-01-17 05:23:00,
2013-01-17 00:28:00,62.8,61.3,30.06,SE,145,0.0,0.0,95,0.00,,,0.00,Wunderground v.1.15,2013-01-17 05:28:00,
2013-01-17 00:34:00,62.8,61.3,30.06,SE,145,0.0,0.0,95,0.00,,,0.00,Wunderground v.1.15,2013-01-17 05:34:00,
2013-01-17 00:40:00,63.0,61.8,30.06,SE,143,0.0,0.0,96,0.00,,,0.00,Wunderground v.1.15,2013-01-17 05:40:00,
2013-01-17 00:45:00,63.2,62.0,30.06,SE,143,0.0,0.0,96,0.00,,,0.00,Wunderground v.1.15,2013-01-17 05:45:00,
2013-01-17 00:51:00,63.2,62.0,30.06,SE,143,0.0,0.0,96,0.00,,,0.00,Wunderground v.1.15,2013-01-17 05:51:00,
2013-01-17 00:57:00,62.9,61.4,30.06,SE,143,0.0,0.0,95,0.00,,,0.00,Wunderground v.1.15,2013-01-17 05:57:00,
2013-01-17 01:02:00,62.7,61.5,30.06,SE,143,0.0,0.0,96,0.00,,,0.00,Wunderground v.1.15,2013-01-17 06:02:00,
2013-01-17 01:08:00,62.5,61.3,30.06,SE,143,0.0,0.0,96,0.00,,,0.00,Wunderground v.1.15,2013-01-17 06:08:00,
2013-01-17 01:14:00,62.5,61.3,30.06,SE,143,0.0,0.0,96,0.00,,,0.00,Wunderground v.1.15,2013-01-17 06:14:00,
2013-01-17 01:19:00,62.5,61.3,30.06,SE,143,0.0,0.0,96,0.00,,,0.00,Wunderground v.1.15,2013-01-17 06:19:00,
2013-01-17 01:25:00,62.3,61.1,30.06,SE,143,0.0,0.0,96,0.00,,,0.00,Wunderground v.1.15,2013-01-17 06:25:00,
2013-01-17 01:31:00,62.2,61.0,30.06,SE,143,0.0,0.0,96,0.00,,,0.00,Wunderground v.1.15,2013-01-17 06:31:00,
2013-01-17 01:36:00,61.9,60.7,30.06,SE,143,0.0,0.0,96,0.00,,,0.00,Wunderground v.1.15,2013-01-17 06:36:00,
2013-01-17 01:42:00,61.7,60.5,30.06,SE,143,0.0,0.0,96,0.00,,,0.00,Wunderground v.1.15,2013-01-17 06:42:00,
2013-01-17 01:48:00,61.4,60.2,30.06,SE,143,0.0,0.0,96,0.00,,,0.00,Wunderground v.1.15,2013-01-17 06:48:00,
2013-01-17 01:54:00,61.1,60.0,30.06,SE,143,0.0,0.0,96,0.00,,,0.00,Wunderground v.1.15,2013-01-17 06:54:00,
2013-01-17 01:59:00,61.0,59.9,30.06,SE,143,0.0,0.0,96,0.00,,,0.00,Wunderground v.1.15,2013-01-17 06:59:00,
2013-01-17 02:05:00,60.9,59.8,30.06,SE,143,0.0,0.0,96,0.00,,,0.00,Wunderground v.1.15,2013-01-17 07:05:00,
2013-01-17 02:11:00,60.4,59.3,30.06,SE,143,0.0,0.0,96,0.00,,,0.00,Wunderground v.1.15,2013-01-17 07:11:00,
2013-01-17 02:16:00,59.9,58.8,30.06,SE,143,0.0,0.0,96,0.00,,,0.00,Wunderground v.1.15,2013-01-17 07:16:00,
2013-01-17 02:22:00,59.9,58.8,30.06,SE,143,0.0,0.0,96,0.00,,,0.00,Wunderground v.1.15,2013-01-17 07:22:00,
2013-01-17 02:28:00,60.0,58.9,30.06,SE,143,0.0,0.0,96,0.00,,,0.00,Wunderground v.1.15,2013-01-17 07:28:00,
2013-01-17 02:34:00,59.8,58.7,30.05,SE,143,0.0,0.0,96,0.00,,,0.00,Wunderground v.1.15,2013-01-17 07:34:00,
2013-01-17 02:39:00,60.0,58.9,30.05,SE,143,0.0,0.0,96,0.00,,,0.00,Wunderground v.1.15,2013-01-17 07:39:00,
2013-01-17 02:45:00,60.3,59.2,30.05,SE,143,0.0,0.0,96,0.00,,,0.00,Wunderground v.1.15,2013-01-17 07:45:00,
2013-01-17 02:51:00,60.3,59.2,30.05,SE,143,0.0,0.0,96,0.00,,,0.00,Wunderground v.1.15,2013-01-17 07:51:00,
2013-01-17 02:57:00,60.0,58.9,30.05,SE,143,0.0,0.0,96,0.00,,,0.00,Wunderground v.1.15,2013-01-17 07:57:00,
2013-01-17 03:02:00,59.8,58.7,30.05,SE,143,0.0,0.0,96,0.00,,,0.00,Wunderground v.1.15,2013-01-17 08:02:00,
2013-01-17 03:08:00,59.8,58.7,30.05,SE,143,0.0,0.0,96,0.00,,,0.00,Wunderground v.1.15,2013-01-17 08:08:00,
2013-01-17 03:14:00,59.8,58.7,30.05,SE,143,0.0,0.0,96,0.00,,,0.00,Wunderground v.1.15,2013-01-17 08:14:00,
2013-01-17 03:20:00,59.9,58.8,30.05,SE,143,0.0,0.0,96,0.00,,,0.00,Wunderground v.1.15,2013-01-17 08:20:00,
2013-01-17 03:26:00,59.8,58.7,30.05,SE,143,0.0,0.0,96,0.00,,,0.00,Wunderground v.1.15,2013-01-17 08:26:00,
2013-01-17 03:31:00,59.8,58.7,30.05,SE,143,0.0,0.0,96,0.00,,,0.00,Wunderground v.1.15,2013-01-17 08:31:00,
2013-01-17 03:36:00,59.6,58.5,30.05,SE,143,0.0,0.0,96,0.00,,,0.00,Wunderground v.1.15,2013-01-17 08:36:00,
2013-01-17 03:42:00,59.5,58.6,30.05,SE,143,0.0,0.0,97,0.00,,,0.00,Wunderground v.1.15,2013-01-17 08:42:00,
2013-01-17 03:48:00,59.4,58.5,30.05,SE,143,0.0,0.0,97,0.00,,,0.00,Wunderground v.1.15,2013-01-17 08:48:00,
2013-01-17 03:54:00,59.2,58.1,30.05,SE,143,0.0,0.0,96,0.00,,,0.00,Wunderground v.1.15,2013-01-17 08:54:00,
2013-01-17 04:00:00,59.2,58.3,30.05,SE,143,0.0,0.0,97,0.00,,,0.00,Wunderground v.1.15,2013-01-17 09:00:00,
2013-01-17 04:05:00,59.1,58.2,30.04,SE,143,0.0,0.0,97,0.00,,,0.00,Wunderground v.1.15,2013-01-17 09:05:00,
2013-01-17 04:11:00,59.2,58.3,30.04,SE,143,0.0,0.0,97,0.00,,,0.00,Wunderground v.1.15,2013-01-17 09:11:00,
2013-01-17 04:17:00,59.2,58.3,30.04,SE,143,0.0,0.0,97,0.00,,,0.00,Wunderground v.1.15,2013-01-17 09:17:00,
2013-01-17 04:22:00,59.1,58.2,30.04,SE,143,0.0,0.0,97,0.00,,,0.00,Wunderground v.1.15,2013-01-17 09:22:00,
2013-01-17 04:28:00,59.1,58.2,30.04,SE,143,0.0,0.0,97,0.00,,,0.00,Wunderground v.1.15,2013-01-17 09:28:00,
2013-01-17 04:34:00,58.9,58.1,30.04,SE,143,0.0,0.0,97,0.00,,,0.00,Wunderground v.1.15,2013-01-17 09:34:00,
2013-01-17 04:39:00,59.2,58.3,30.04,SE,143,0.0,0.0,97,0.00,,,0.00,Wunderground v.1.15,2013-01-17 09:39:00,
2013-01-17 04:45:00,59.3,58.4,30.04,SE,143,0.0,0.0,97,0.00,,,0.00,Wunderground v.1.15,2013-01-17 09:45:00,
2013-01-17 04:51:00,59.4,58.5,30.04,SE,143,0.0,0.0,97,0.00,,,0.00,Wunderground v.1.15,2013-01-17 09:51:00,
2013-01-17 04:57:00,59.4,58.5,30.04,SE,143,0.0,0.0,97,0.00,,,0.00,Wunderground v.1.15,2013-01-17 09:57:00,
2013-01-17 05:03:00,59.4,58.5,30.04,SE,143,0.0,0.0,97,0.00,,,0.00,Wunderground v.1.15,2013-01-17 10:03:00,
2013-01-17 05:08:00,59.3,58.4,30.04,SE,143,0.0,0.0,97,0.00,,,0.00,Wunderground v.1.15,2013-01-17 10:08:00,
2013-01-17 05:14:00,59.4,58.5,30.04,SE,143,0.0,0.0,97,0.00,,,0.00,Wunderground v.1.15,2013-01-17 10:14:00,
2013-01-17 05:20:00,59.4,58.5,30.04,SE,143,0.0,0.0,97,0.00,,,0.00,Wunderground v.1.15,2013-01-17 10:20:00,
2013-01-17 05:26:00,59.4,58.5,30.04,SE,143,0.0,0.0,97,0.00,,,0.00,Wunderground v.1.15,2013-01-17 10:26:00,
2013-01-17 05:31:00,59.5,58.6,30.04,SE,143,0.0,0.0,97,0.00,,,0.00,Wunderground v.1.15,2013-01-17 10:31:00,
2013-01-17 05:37:00,59.4,58.5,30.04,SE,143,0.0,0.0,97,0.00,,,0.00,Wunderground v.1.15,2013-01-17 10:37:00,
2013-01-17 05:43:00,59.6,58.7,30.04,SE,143,0.0,0.0,97,0.00,,,0.00,Wunderground v.1.15,2013-01-17 10:43:00,
2013-01-17 05:49:00,59.5,58.6,30.04,SE,143,0.0,0.0,97,0.00,,,0.00,Wunderground v.1.15,2013-01-17 10:49:00,
2013-01-17 05:54:00,59.6,58.7,30.04,SE,143,0.0,0.0,97,0.00,,,0.00,Wunderground v.1.15,2013-01-17 10:54:00,
2013-01-17 06:00:00,59.9,59.0,30.04,SE,143,0.0,0.0,97,0.00,,,0.00,Wunderground v.1.15,2013-01-17 11:00:00,
2013-01-17 06:06:00,59.9,59.0,30.04,SE,143,0.0,0.0,97,0.00,,,0.00,Wunderground v.1.15,2013-01-17 11:06:00,
2013-01-17 06:12:00,60.0,59.1,30.04,SE,143,0.0,0.0,97,0.00,,,0.00,Wunderground v.1.15,2013-01-17 11:12:00,
2013-01-17 06:18:00,59.8,58.9,30.04,SE,143,0.0,0.0,97,0.00,,,0.00,Wunderground v.1.15,2013-01-17 11:18:00,
2013-01-17 06:24:00,59.6,58.7,30.04,SE,143,0.0,0.0,97,0.00,,,0.00,Wunderground v.1.15,2013-01-17 11:24:00,
2013-01-17 06:29:00,59.7,58.8,30.04,SE,143,0.0,0.0,97,0.00,,,0.00,Wunderground v.1.15,2013-01-17 11:29:00,
2013-01-17 06:35:00,59.9,59.0,30.04,SE,143,0.0,0.0,97,0.00,,,0.00,Wunderground v.1.15,2013-01-17 11:35:00,
2013-01-17 06:40:00,60.0,59.1,30.05,SE,143,0.0,0.0,97,0.00,,,0.00,Wunderground v.1.15,2013-01-17 11:40:00,
2013-01-17 06:46:00,60.2,59.3,30.05,SE,141,0.0,3.0,97,0.00,,,0.00,Wunderground v.1.15,2013-01-17 11:46:00,
2013-01-17 06:52:00,60.5,59.6,30.05,North,357,0.0,2.0,97,0.00,,,0.00,Wunderground v.1.15,2013-01-17 11:52:00,
2013-01-17 06:58:00,60.5,59.6,30.05,North,355,0.0,2.0,97,0.00,,,0.00,Wunderground v.1.15,2013-01-17 11:58:00,
2013-01-17 07:03:00,60.4,59.5,30.05,North,355,0.0,2.0,97,0.00,,,0.00,Wunderground v.1.15,2013-01-17 12:03:00,
2013-01-17 07:09:00,60.5,59.6,30.05,North,355,0.0,2.0,97,0.00,,,0.00,Wunderground v.1.15,2013-01-17 12:09:00,
2013-01-17 07:15:00,60.7,59.8,30.05,North,355,0.0,0.0,97,0.00,,,0.00,Wunderground v.1.15,2013-01-17 12:15:00,
2013-01-17 07:21:00,60.8,59.9,30.05,North,355,0.0,0.0,97,0.00,,,0.00,Wunderground v.1.15,2013-01-17 12:21:00,
2013-01-17 07:26:00,60.8,59.9,30.05,North,355,0.0,0.0,97,0.00,,,0.00,Wunderground v.1.15,2013-01-17 12:26:00,
2013-01-17 07:32:00,60.8,59.9,30.05,North,355,0.0,2.0,97,0.00,,,0.00,Wunderground v.1.15,2013-01-17 12:32:00,
2013-01-17 07:38:00,61.1,60.2,30.05,North,355,0.0,2.0,97,0.00,,,0.00,Wunderground v.1.15,2013-01-17 12:38:00,
2013-01-17 07:43:00,61.3,60.4,30.05,North,356,0.0,2.0,97,0.00,,,0.00,Wunderground v.1.15,2013-01-17 12:43:00,
2013-01-17 07:49:00,61.6,61.0,30.05,North,356,1.0,2.0,98,0.00,,,0.00,Wunderground v.1.15,2013-01-17 12:49:00,
2013-01-17 07:54:00,61.8,60.9,30.05,North,358,0.0,1.0,97,0.00,,,0.00,Wunderground v.1.15,2013-01-17 12:54:00,
2013-01-17 08:00:00,62.1,61.5,30.05,North,1,0.0,0.0,98,0.00,,,0.00,Wunderground v.1.15,2013-01-17 13:00:00,
2013-01-17 08:06:00,62.5,61.9,30.05,North,4,0.0,4.0,98,0.00,,,0.00,Wunderground v.1.15,2013-01-17 13:06:00,
2013-01-17 08:11:00,62.9,62.3,30.05,North,4,1.0,4.0,98,0.00,,,0.00,Wunderground v.1.15,2013-01-17 13:11:00,
2013-01-17 08:17:00,63.0,62.4,30.05,North,2,1.0,4.0,98,0.00,,,0.00,Wunderground v.1.15,2013-01-17 13:17:00,
2013-01-17 08:23:00,63.5,62.9,30.06,North,2,0.0,4.0,98,0.00,,,0.00,Wunderground v.1.15,2013-01-17 13:23:00,
2013-01-17 08:29:00,64.1,63.5,30.06,North,2,0.0,4.0,98,0.00,,,0.00,Wunderground v.1.15,2013-01-17 13:29:00,
2013-01-17 08:34:00,64.6,64.0,30.06,North,2,0.0,4.0,98,0.00,,,0.00,Wunderground v.1.15,2013-01-17 13:34:00,
2013-01-17 08:40:00,65.2,64.6,30.06,North,354,0.0,4.0,98,0.00,,,0.00,Wunderground v.1.15,2013-01-17 13:40:00,
2013-01-17 08:46:00,65.7,65.1,30.06,North,352,1.0,5.0,98,0.00,,,0.00,Wunderground v.1.15,2013-01-17 13:46:00,
2013-01-17 08:52:00,66.1,65.5,30.06,North,351,1.0,4.0,98,0.00,,,0.00,Wunderground v.1.15,2013-01-17 13:52:00,
2013-01-17 08:57:00,66.5,65.9,30.06,North,351,1.0,6.0,98,0.00,,,0.00,Wunderground v.1.15,2013-01-17 13:57:00,
2013-01-17 09:03:00,67.0,66.1,30.06,North,1,1.0,4.0,97,0.00,,,0.00,Wunderground v.1.15,2013-01-17 14:03:00,
2013-01-17 09:09:00,67.6,66.7,30.06,North,11,3.0,5.0,97,0.00,,,0.00,Wunderground v.1.15,2013-01-17 14:09:00,
2013-01-17 09:14:00,68.2,67.3,30.07,NNE,28,3.0,6.0,97,0.00,,,0.00,Wunderground v.1.15,2013-01-17 14:14:00,
2013-01-17 09:20:00,68.8,67.6,30.07,NE,35,3.0,5.0,96,0.00,,,0.00,Wunderground v.1.15,2013-01-17 14:20:00,
2013-01-17 09:26:00,69.3,68.1,30.07,NNE,27,4.0,6.0,96,0.00,,,0.00,Wunderground v.1.15,2013-01-17 14:26:00,
2013-01-17 09:32:00,69.7,68.2,30.06,North,360,4.0,5.0,95,0.00,,,0.00,Wunderground v.1.15,2013-01-17 14:32:00,
2013-01-17 09:37:00,70.3,68.5,30.06,NNE,14,4.0,7.0,94,0.00,,,0.00,Wunderground v.1.15,2013-01-17 14:37:00,
2013-01-17 09:42:00,71.4,69.0,30.06,NNE,31,3.0,5.0,92,0.00,,,0.00,Wunderground v.1.15,2013-01-17 14:42:00,
2013-01-17 09:48:00,71.9,68.8,30.06,NNW,341,4.0,9.0,90,0.00,,,0.00,Wunderground v.1.15,2013-01-17 14:48:00,
2013-01-17 09:54:00,72.1,68.3,30.06,NE,47,6.0,11.0,88,0.00,,,0.00,Wunderground v.1.15,2013-01-17 14:54:00,
2013-01-17 10:00:00,72.5,68.4,30.06,ENE,67,7.0,9.0,87,0.00,,,0.00,Wunderground v.1.15,2013-01-17 15:00:00,
2013-01-17 10:05:00,73.1,68.3,30.06,NNE,27,6.0,9.0,85,0.00,,,0.00,Wunderground v.1.15,2013-01-17 15:05:00,
2013-01-17 10:11:00,73.2,68.4,30.06,NNE,25,6.0,13.0,85,0.00,,,0.00,Wunderground v.1.15,2013-01-17 15:11:00,
2013-01-17 10:17:00,73.7,68.6,30.06,North,10,5.0,13.0,84,0.00,,,0.00,Wunderground v.1.15,2013-01-17 15:17:00,
2013-01-17 10:22:00,73.8,68.3,30.06,NNE,27,5.0,9.0,83,0.00,,,0.00,Wunderground v.1.15,2013-01-17 15:22:00,
2013-01-17 10:28:00,73.7,68.2,30.06,NNW,328,6.0,13.0,83,0.00,,,0.00,Wunderground v.1.15,2013-01-17 15:28:00,
2013-01-17 10:34:00,74.2,68.3,30.05,ENE,74,5.0,12.0,82,0.00,,,0.00,Wunderground v.1.15,2013-01-17 15:34:00,
2013-01-17 10:39:00,74.2,68.3,30.05,ESE,103,6.0,14.0,82,0.00,,,0.00,Wunderground v.1.15,2013-01-17 15:39:00,
2013-01-17 10:45:00,74.6,68.4,30.05,ENE,77,6.0,9.0,81,0.00,,,0.00,Wunderground v.1.15,2013-01-17 15:45:00,
2013-01-17 10:51:00,74.7,68.1,30.05,NNE,25,6.0,6.0,80,0.00,,,0.00,Wunderground v.1.15,2013-01-17 15:51:00,
2013-01-17 10:56:00,74.9,67.9,30.05,NE,36,7.0,9.0,79,0.00,,,0.00,Wunderground v.1.15,2013-01-17 15:56:00,
2013-01-17 11:02:00,74.2,67.6,30.05,NNE,25,7.0,10.0,80,0.00,,,0.00,Wunderground v.1.15,2013-01-17 16:02:00,
2013-01-17 11:08:00,74.5,68.3,30.04,NE,41,7.0,10.0,81,0.00,,,0.00,Wunderground v.1.15,2013-01-17 16:08:00,
2013-01-17 11:14:00,74.4,67.8,30.04,NE,52,6.0,9.0,80,0.00,,,0.00,Wunderground v.1.15,2013-01-17 16:14:00,
2013-01-17 11:19:00,74.8,67.8,30.03,ENE,69,6.0,11.0,79,0.00,,,0.00,Wunderground v.1.15,2013-01-17 16:19:00,
2013-01-17 11:25:00,74.6,67.3,30.03,North,11,6.0,9.0,78,0.00,,,0.00,Wunderground v.1.15,2013-01-17 16:25:00,
2013-01-17 11:31:00,74.7,67.8,30.03,NNE,26,6.0,10.0,79,0.00,,,0.00,Wunderground v.1.15,2013-01-17 16:31:00,
2013-01-17 11:37:00,75.2,67.5,30.03,NNE,27,6.0,11.0,77,0.00,,,0.00,Wunderground v.1.15,2013-01-17 16:37:00,
2013-01-17 11:42:00,75.6,67.9,30.02,ENE,61,6.0,9.0,77,0.00,,,0.00,Wunderground v.1.15,2013-01-17 16:42:00,
2013-01-17 11:48:00,75.8,66.9,30.03,NNE,33,6.0,14.0,74,0.00,,,0.00,Wunderground v.1.15,2013-01-17 16:48:00,
2013-01-17 11:53:00,75.6,66.7,30.02,ENE,77,7.0,10.0,74,0.00,,,0.00,Wunderground v.1.15,2013-01-17 16:53:00,
2013-01-17 11:59:00,75.0,66.5,30.02,ENE,60,7.0,10.0,75,0.00,,,0.00,Wunderground v.1.15,2013-01-17 16:59:00,
2013-01-17 12:05:00,75.0,66.5,30.02,NE,34,6.0,14.0,75,0.00,,,0.00,Wunderground v.1.15,2013-01-17 17:05:00,
2013-01-17 12:11:00,75.2,66.7,30.01,NNE,29,6.0,10.0,75,0.00,,,0.00,Wunderground v.1.15,2013-01-17 17:11:00,
2013-01-17 12:16:00,75.1,66.6,30.01,East,82,6.0,10.0,75,0.00,,,0.00,Wunderground v.1.15,2013-01-17 17:16:00,
2013-01-17 12:22:00,72.3,64.3,30.02,SE,144,10.0,17.0,76,0.00,,,0.00,Wunderground v.1.15,2013-01-17 17:22:00,
2013-01-17 12:28:00,71.0,64.5,30.01,East,85,10.0,17.0,80,0.00,,,0.00,Wunderground v.1.15,2013-01-17 17:28:00,
2013-01-17 12:34:00,70.3,63.8,30.02,ESE,107,10.0,19.0,80,0.00,,,0.00,Wunderground v.1.15,2013-01-17 17:34:00,
2013-01-17 12:40:00,68.0,62.6,30.02,ENE,73,12.0,13.0,83,0.00,,,0.01,Wunderground v.1.15,2013-01-17 17:40:00,
2013-01-17 12:45:00,66.4,62.7,30.02,East,81,12.0,18.0,88,0.00,,,0.01,Wunderground v.1.15,2013-01-17 17:45:00,
2013-01-17 12:51:00,65.8,63.1,30.02,East,87,9.0,11.0,91,0.07,,,0.02,Wunderground v.1.15,2013-01-17 17:51:00,
2013-01-17 12:57:00,65.7,63.3,30.02,East,87,6.0,11.0,92,0.05,,,0.02,Wunderground v.1.15,2013-01-17 17:57:00,
2013-01-17 13:03:00,65.5,63.4,30.02,NE,51,5.0,12.0,93,0.00,,,0.02,Wunderground v.1.15,2013-01-17 18:03:00,
2013-01-17 13:08:00,65.5,63.4,30.02,East,83,7.0,12.0,93,0.00,,,0.02,Wunderground v.1.15,2013-01-17 18:08:00,
2013-01-17 13:14:00,65.5,63.4,30.02,East,84,8.0,12.0,93,0.00,,,0.03,Wunderground v.1.15,2013-01-17 18:14:00,
2013-01-17 13:20:00,65.5,63.1,30.01,ESE,121,8.0,8.0,92,0.00,,,0.03,Wunderground v.1.15,2013-01-17 18:20:00,
2013-01-17 13:26:00,65.0,62.6,30.02,ESE,113,7.0,9.0,92,0.00,,,0.03,Wunderground v.1.15,2013-01-17 18:26:00,
2013-01-17 13:32:00,64.2,61.5,30.01,East,95,8.0,12.0,91,0.00,,,0.03,Wunderground v.1.15,2013-01-17 18:32:00,
2013-01-17 13:38:00,63.9,61.5,30.01,ENE,77,10.0,13.0,92,0.00,,,0.03,Wunderground v.1.15,2013-01-17 18:38:00,
2013-01-17 13:43:00,64.0,61.6,30.01,East,101,10.0,12.0,92,0.00,,,0.03,Wunderground v.1.15,2013-01-17 18:43:00,
2013-01-17 13:49:00,64.0,61.3,30.01,East,99,8.0,15.0,91,0.00,,,0.03,Wunderground v.1.15,2013-01-17 18:49:00,
2013-01-17 13:55:00,63.5,60.8,30.01,East,89,9.0,17.0,91,0.00,,,0.03,Wunderground v.1.15,2013-01-17 18:55:00,
2013-01-17 14:01:00,63.6,61.2,30.01,East,81,9.0,11.0,92,0.00,,,0.03,Wunderground v.1.15,2013-01-17 19:01:00,
2013-01-17 14:07:00,63.5,60.5,30.01,East,99,8.0,11.0,90,0.00,,,0.03,Wunderground v.1.15,2013-01-17 19:07:00,
2013-01-17 14:12:00,63.1,59.8,30.01,ENE,64,9.0,11.0,89,0.00,,,0.03,Wunderground v.1.15,2013-01-17 19:12:00,
2013-01-17 14:18:00,62.7,59.7,30.01,ESE,103,9.0,11.0,90,0.00,,,0.03,Wunderground v.1.15,2013-01-17 19:18:00,
2013-01-17 14:23:00,62.6,59.6,30.01,ENE,75,9.0,10.0,90,0.00,,,0.03,Wunderground v.1.15,2013-01-17 19:23:00,
2013-01-17 14:29:00,62.6,59.3,30.02,East,89,10.0,16.0,89,0.00,,,0.03,Wunderground v.1.15,2013-01-17 19:29:00,
2013-01-17 14:35:00,61.0,57.4,30.02,ESE,106,9.0,17.0,88,0.00,,,0.03,Wunderground v.1.15,2013-01-17 19:35:00,
2013-01-17 14:41:00,60.3,56.7,30.02,East,85,10.0,13.0,88,0.00,,,0.03,Wunderground v.1.15,2013-01-17 19:41:00,
2013-01-17 14:46:00,60.1,56.2,30.03,East,98,11.0,22.0,87,0.00,,,0.03,Wunderground v.1.15,2013-01-17 19:46:00,
2013-01-17 14:52:00,60.1,55.6,30.03,East,85,11.0,11.0,85,0.00,,,0.03,Wunderground v.1.15,2013-01-17 19:52:00,
2013-01-17 14:58:00,60.0,55.5,30.03,East,99,11.0,14.0,85,0.00,,,0.03,Wunderground v.1.15,2013-01-17 19:58:00,
2013-01-17 15:04:00,60.1,55.6,30.03,East,84,11.0,11.0,85,0.00,,,0.03,Wunderground v.1.15,2013-01-17 20:04:00,
2013-01-17 15:09:00,60.3,55.4,30.03,SE,132,9.0,12.0,84,0.00,,,0.03,Wunderground v.1.15,2013-01-17 20:09:00,
2013-01-17 15:15:00,60.2,55.3,30.04,East,95,9.0,12.0,84,0.00,,,0.03,Wunderground v.1.15,2013-01-17 20:15:00,
2013-01-17 15:21:00,59.9,55.1,30.04,ESE,116,8.0,9.0,84,0.00,,,0.03,Wunderground v.1.15,2013-01-17 20:21:00,
2013-01-17 15:27:00,59.6,54.8,30.04,East,85,8.0,17.0,84,0.00,,,0.03,Wunderground v.1.15,2013-01-17 20:27:00,
2013-01-17 15:32:00,59.4,54.6,30.04,ENE,77,8.0,15.0,84,0.00,,,0.03,Wunderground v.1.15,2013-01-17 20:32:00,
2013-01-17 15:38:00,59.7,54.5,30.04,ESE,103,10.0,15.0,83,0.00,,,0.03,Wunderground v.1.15,2013-01-17 20:38:00,
2013-01-17 15:44:00,59.9,54.4,30.04,East,87,10.0,20.0,82,0.00,,,0.03,Wunderground v.1.15,2013-01-17 20:44:00,
2013-01-17 15:49:00,59.8,54.3,30.04,East,95,10.0,20.0,82,0.00,,,0.03,Wunderground v.1.15,2013-01-17 20:49:00,
2013-01-17 15:55:00,59.6,54.1,30.04,East,87,11.0,14.0,82,0.00,,,0.03,Wunderground v.1.15,2013-01-17 20:55:00,
2013-01-17 16:01:00,59.5,54.3,30.05,East,82,9.0,14.0,83,0.00,,,0.03,Wunderground v.1.15,2013-01-17 21:01:00,
2013-01-17 16:06:00,59.4,53.9,30.05,East,85,7.0,14.0,82,0.00,,,0.03,Wunderground v.1.15,2013-01-17 21:06:00,
2013-01-17 16:12:00,59.2,53.7,30.06,ENE,72,8.0,9.0,82,0.00,,,0.03,Wunderground v.1.15,2013-01-17 21:12:00,
2013-01-17 16:17:00,59.1,53.3,30.06,East,88,8.0,12.0,81,0.00,,,0.03,Wunderground v.1.15,2013-01-17 21:17:00,
2013-01-17 16:23:00,59.1,53.3,30.06,SE,129,9.0,13.0,81,0.00,,,0.03,Wunderground v.1.15,2013-01-17 21:23:00,
2013-01-17 16:29:00,59.0,52.8,30.06,SE,143,9.0,13.0,80,0.00,,,0.03,Wunderground v.1.15,2013-01-17 21:29:00,
2013-01-17 16:35:00,58.9,52.1,30.06,ESE,107,10.0,16.0,78,0.00,,,0.03,Wunderground v.1.15,2013-01-17 21:35:00,
2013-01-17 16:41:00,58.8,52.0,30.06,East,89,11.0,11.0,78,0.00,,,0.03,Wunderground v.1.15,2013-01-17 21:41:00,
2013-01-17 16:46:00,58.9,51.7,30.06,East,89,9.0,11.0,77,0.00,,,0.03,Wunderground v.1.15,2013-01-17 21:46:00,
2013-01-17 16:52:00,59.1,51.5,30.07,South,175,9.0,9.0,76,0.00,,,0.03,Wunderground v.1.15,2013-01-17 21:52:00,
2013-01-17 16:58:00,59.1,51.2,30.06,ENE,77,9.0,18.0,75,0.00,,,0.03,Wunderground v.1.15,2013-01-17 21:58:00,
2013-01-17 17:04:00,59.0,51.1,30.07,East,101,10.0,16.0,75,0.00,,,0.03,Wunderground v.1.15,2013-01-17 22:04:00,
2013-01-17 17:09:00,58.9,50.6,30.07,East,97,9.0,16.0,74,0.00,,,0.03,Wunderground v.1.15,2013-01-17 22:09:00,
2013-01-17 17:15:00,58.9,51.0,30.06,East,83,9.0,11.0,75,0.00,,,0.03,Wunderground v.1.15,2013-01-17 22:15:00,
2013-01-17 17:21:00,58.9,50.6,30.07,ESE,114,9.0,10.0,74,0.00,,,0.03,Wunderground v.1.15,2013-01-17 22:21:00,
2013-01-17 17:26:00,58.9,50.6,30.07,East,92,9.0,19.0,74,0.00,,,0.03,Wunderground v.1.15,2013-01-17 22:26:00,
2013-01-17 17:32:00,58.9,50.6,30.07,ENE,75,8.0,11.0,74,0.00,,,0.03,Wunderground v.1.15,2013-01-17 22:32:00,
2013-01-17 17:38:00,58.9,50.3,30.07,ENE,78,8.0,12.0,73,0.00,,,0.03,Wunderground v.1.15,2013-01-17 22:38:00,
2013-01-17 17:44:00,58.8,50.2,30.07,East,87,7.0,15.0,73,0.00,,,0.03,Wunderground v.1.15,2013-01-17 22:44:00,
2013-01-17 17:49:00,58.7,50.1,30.07,SE,131,9.0,15.0,73,0.00,,,0.03,Wunderground v.1.15,2013-01-17 22:49:00,
2013-01-17 17:55:00,58.7,49.7,30.08,ENE,66,9.0,15.0,72,0.00,,,0.03,Wunderground v.1.15,2013-01-17 22:55:00,
2013-01-17 18:01:00,58.6,49.2,30.08,East,86,7.0,11.0,71,0.00,,,0.03,Wunderground v.1.15,2013-01-17 23:01:00,
2013-01-17 18:06:00,58.4,49.0,30.08,East,100,7.0,11.0,71,0.00,,,0.03,Wunderground v.1.15,2013-01-17 23:06:00,
2013-01-17 18:12:00,58.2,48.8,30.08,NE,53,7.0,11.0,71,0.00,,,0.03,Wunderground v.1.15,2013-01-17 23:12:00,
2013-01-17 18:18:00,57.9,48.6,30.08,ENE,73,8.0,12.0,71,0.00,,,0.03,Wunderground v.1.15,2013-01-17 23:18:00,
2013-01-17 18:23:00,57.6,48.3,30.08,ENE,77,7.0,13.0,71,0.00,,,0.03,Wunderground v.1.15,2013-01-17 23:23:00,
2013-01-17 18:29:00,57.6,48.3,30.08,East,91,7.0,13.0,71,0.00,,,0.03,Wunderground v.1.15,2013-01-17 23:29:00,
2013-01-17 18:35:00,57.4,47.7,30.09,ESE,115,8.0,9.0,70,0.00,,,0.03,Wunderground v.1.15,2013-01-17 23:35:00,
2013-01-17 18:41:00,57.4,48.1,30.08,ENE,72,9.0,9.0,71,0.00,,,0.03,Wunderground v.1.15,2013-01-17 23:41:00,
2013-01-17 18:46:00,57.4,48.1,30.09,ENE,72,7.0,9.0,71,0.00,,,0.03,Wunderground v.1.15,2013-01-17 23:46:00,
2013-01-17 18:52:00,-999.9,-99.9,30.09,North,32767,-999.0,4.0,255,-99.99,,,0.03,Wunderground v.1.15,2013-01-17 23:52:00,
2013-01-17 18:58:00,-999.9,-99.9,30.09,North,32767,-999.0,4.0,255,-99.99,,,0.03,Wunderground v.1.15,2013-01-17 23:58:00,
2013-01-17 19:03:00,-999.9,-99.9,30.09,North,32767,-999.0,4.0,255,-99.99,,,0.03,Wunderground v.1.15,2013-01-18 00:03:00,
2013-01-17 19:09:00,56.3,48.1,30.09,ESE,102,5.0,7.0,74,0.00,,,0.03,Wunderground v.1.15,2013-01-18 00:09:00,
2013-01-17 19:15:00,56.3,48.1,30.09,East,88,6.0,11.0,74,0.00,,,0.03,Wunderground v.1.15,2013-01-18 00:15:00,
2013-01-17 19:20:00,56.3,48.1,30.09,East,89,6.0,6.0,74,0.00,,,0.03,Wunderground v.1.15,2013-01-18 00:20:00,
2013-01-17 19:26:00,56.3,48.8,30.10,NE,36,6.0,14.0,76,0.00,,,0.03,Wunderground v.1.15,2013-01-18 00:26:00,
2013-01-17 19:32:00,56.3,48.1,30.10,ENE,64,7.0,7.0,74,0.00,,,0.03,Wunderground v.1.15,2013-01-18 00:32:00,
2013-01-17 19:38:00,56.0,48.2,30.10,East,97,6.0,7.0,75,0.00,,,0.03,Wunderground v.1.15,2013-01-18 00:38:00,
2013-01-17 19:43:00,56.0,48.2,30.10,East,97,5.0,5.0,75,0.00,,,0.03,Wunderground v.1.15,2013-01-18 00:43:00,
2013-01-17 19:49:00,-999.9,-99.9,30.10,North,32767,-999.0,5.0,255,-99.99,,,0.03,Wunderground v.1.15,2013-01-18 00:49:00,
2013-01-17 19:55:00,-999.9,-99.9,30.11,North,32767,-999.0,4.0,255,-99.99,,,0.03,Wunderground v.1.15,2013-01-18 00:55:00,
2013-01-17 20:00:00,-999.9,-99.9,30.11,North,32767,-999.0,4.0,255,-99.99,,,0.03,Wunderground v.1.15,2013-01-18 01:00:00,
2013-01-17 20:06:00,-999.9,-99.9,30.10,North,32767,-999.0,4.0,255,-99.99,,,0.03,Wunderground v.1.15,2013-01-18 01:06:00,
2013-01-17 20:12:00,-999.9,-99.9,30.11,North,32767,-999.0,4.0,255,-99.99,,,0.03,Wunderground v.1.15,2013-01-18 01:12:00,
2013-01-17 20:18:00,-999.9,-99.9,30.11,North,32767,-999.0,4.0,255,-99.99,,,0.03,Wunderground v.1.15,2013-01-18 01:18:00,
2013-01-17 20:23:00,-999.9,-99.9,30.11,North,32767,-999.0,4.0,255,-99.99,,,0.03,Wunderground v.1.15,2013-01-18 01:23:00,
2013-01-17 20:29:00,-999.9,-99.9,30.12,North,32767,-999.0,4.0,255,-99.99,,,0.03,Wunderground v.1.15,2013-01-18 01:29:00,
2013-01-17 20:35:00,-999.9,-99.9,30.12,North,32767,-999.0,4.0,255,-99.99,,,0.03,Wunderground v.1.15,2013-01-18 01:35:00,
2013-01-17 20:41:00,-999.9,-99.9,30.12,North,32767,-999.0,4.0,255,-99.99,,,0.03,Wunderground v.1.15,2013-01-18 01:41:00,
2013-01-17 20:47:00,-999.9,-99.9,30.13,North,32767,-999.0,4.0,255,-99.99,,,0.03,Wunderground v.1.15,2013-01-18 01:47:00,
2013-01-17 20:52:00,-999.9,-99.9,30.12,North,32767,-999.0,4.0,255,-99.99,,,0.03,Wunderground v.1.15,2013-01-18 01:52:00,
2013-01-17 20:58:00,-999.9,-99.9,30.13,North,32767,-999.0,4.0,255,-99.99,,,0.03,Wunderground v.1.15,2013-01-18 01:58:00,
2013-01-17 21:04:00,-999.9,-99.9,30.13,North,32767,-999.0,4.0,255,-99.99,,,0.03,Wunderground v.1.15,2013-01-18 02:04:00,
2013-01-17 21:09:00,-999.9,-99.9,30.13,North,32767,-999.0,4.0,255,-99.99,,,0.03,Wunderground v.1.15,2013-01-18 02:09:00,
2013-01-17 21:15:00,-999.9,-99.9,30.13,North,32767,-999.0,4.0,255,-99.99,,,0.03,Wunderground v.1.15,2013-01-18 02:15:00,
2013-01-17 21:21:00,-999.9,-99.9,30.13,North,32767,-999.0,4.0,255,-99.99,,,0.03,Wunderground v.1.15,2013-01-18 02:21:00,
2013-01-17 21:26:00,-999.9,-99.9,30.13,North,32767,-999.0,4.0,255,-99.99,,,0.03,Wunderground v.1.15,2013-01-18 02:26:00,
2013-01-17 21:32:00,-999.9,-99.9,30.13,North,32767,-999.0,4.0,255,-99.99,,,0.03,Wunderground v.1.15,2013-01-18 02:32:00,
2013-01-17 21:38:00,-999.9,-99.9,30.13,North,32767,-999.0,4.0,255,-99.99,,,0.03,Wunderground v.1.15,2013-01-18 02:38:00,
2013-01-17 21:44:00,-999.9,-99.9,30.13,North,32767,-999.0,4.0,255,-99.99,,,0.03,Wunderground v.1.15,2013-01-18 02:44:00,
2013-01-17 21:50:00,-999.9,-99.9,30.13,North,32767,-999.0,4.0,255,-99.99,,,0.03,Wunderground v.1.15,2013-01-18 02:50:00,
2013-01-17 21:55:00,-999.9,-99.9,30.13,North,32767,-999.0,4.0,255,-99.99,,,0.03,Wunderground v.1.15,2013-01-18 02:55:00,
2013-01-17 22:01:00,54.2,-99.9,30.13,East,95,6.0,6.0,255,0.00,,,0.03,Wunderground v.1.15,2013-01-18 03:01:00,
2013-01-17 22:07:00,54.2,46.8,30.13,East,87,12.0,12.0,76,0.00,,,0.03,Wunderground v.1.15,2013-01-18 03:07:00,
2013-01-17 22:12:00,54.2,46.8,30.13,East,87,12.0,12.0,76,0.00,,,0.03,Wunderground v.1.15,2013-01-18 03:12:00,
2013-01-17 22:18:00,-999.9,-99.9,30.14,North,32767,-999.0,12.0,255,-99.99,,,0.03,Wunderground v.1.15,2013-01-18 03:18:00,
2013-01-17 22:24:00,-999.9,-99.9,30.14,North,32767,-999.0,4.0,255,-99.99,,,0.03,Wunderground v.1.15,2013-01-18 03:24:00,
2013-01-17 22:29:00,-999.9,-99.9,30.14,North,32767,-999.0,4.0,255,-99.99,,,0.03,Wunderground v.1.15,2013-01-18 03:29:00,
2013-01-17 22:35:00,-999.9,-99.9,30.14,North,32767,-999.0,4.0,255,-99.99,,,0.03,Wunderground v.1.15,2013-01-18 03:35:00,
2013-01-17 22:41:00,-999.9,-99.9,30.14,North,32767,-999.0,4.0,255,-99.99,,,0.03,Wunderground v.1.15,2013-01-18 03:41:00,
2013-01-17 22:47:00,-999.9,-99.9,30.14,North,32767,-999.0,4.0,255,-99.99,,,0.03,Wunderground v.1.15,2013-01-18 03:47:00,
2013-01-17 22:52:00,-999.9,-99.9,30.14,North,32767,-999.0,4.0,255,-99.99,,,0.03,Wunderground v.1.15,2013-01-18 03:52:00,
2013-01-17 22:58:00,-999.9,-99.9,30.14,North,32767,-999.0,4.0,255,-99.99,,,0.03,Wunderground v.1.15,2013-01-18 03:58:00,
2013-01-17 23:04:00,52.2,45.2,30.15,SE,132,4.0,5.0,77,0.00,,,0.03,Wunderground v.1.15,2013-01-18 04:04:00,
2013-01-17 23:10:00,52.0,45.0,30.15,SE,126,7.0,11.0,77,0.00,,,0.03,Wunderground v.1.15,2013-01-18 04:10:00,
2013-01-17 23:15:00,52.0,45.0,30.14,SSE,165,7.0,15.0,77,0.00,,,0.03,Wunderground v.1.15,2013-01-18 04:15:00,
2013-01-17 23:21:00,51.8,44.8,30.15,ESE,122,6.0,9.0,77,0.00,,,0.03,Wunderground v.1.15,2013-01-18 04:21:00,
2013-01-17 23:27:00,51.7,44.7,30.15,ESE,104,5.0,9.0,77,0.00,,,0.03,Wunderground v.1.15,2013-01-18 04:27:00,
2013-01-17 23:32:00,51.4,44.4,30.15,ESE,114,6.0,6.0,77,0.00,,,0.03,Wunderground v.1.15,2013-01-18 04:32:00,
2013-01-17 23:38:00,51.0,44.0,30.16,SE,131,5.0,7.0,77,0.00,,,0.03,Wunderground v.1.15,2013-01-18 04:38:00,
2013-01-17 23:44:00,50.8,43.5,30.16,ESE,108,5.0,10.0,76,0.00,,,0.03,Wunderground v.1.15,2013-01-18 04:44:00,
2013-01-17 23:50:00,50.4,43.1,30.16,SE,137,5.0,10.0,76,0.00,,,0.03,Wunderground v.1.15,2013-01-18 04:50:00,
2013-01-17 23:55:00,50.2,42.9,30.16,ESE,104,5.0,11.0,76,0.00,,,0.03,Wunderground v.1.15,2013-01-18 04:55:00,